Location: Clermont
(50.2608°N, 4.3172°E)
Time: 10:10:11
(UTC+00:00)

Cosmos 2237 Rocket - Pass Details

Date: 13 August 2020
Orbit: 836 x 849 km, 71.0° (Epoch: 20 September)

Event Time Altitude Azimuth Distance (km) Brightness Sun altitude
Rises 23:04:28 0° 331° (NNW) 3,411 6.6 -24.8°
Reaches altitude 10° 23:06:57 10° 334° (NNW) 2,471 5.6 -24.8°
Maximum altitude 23:12:35 66° 57° (ENE) 914 2.3 -25.0°
Enters shadow 23:13:49 52° 113° (ESE) 1,039 2.4 -25.0°
